View from above orbital plane
|
View from above satellite
|
Ground track
|
The orbit data is extracted from the following two-line orbital elements,
1 39026U 12072A 21101.90865466 .00001797 00000-0 63635-4 0 9992
2 39026 97.2429 96.4165 0034041 261.2509 98.4876 15.29900808462919
Epoch (UTC): | 11 April 2021 21:48:27 |
Eccentricity: | 0.0034041 |
inclination: | 97.2429° |
perigee height: | 453 km |
apogee height: | 499 km |
right ascension of ascending node: | 96.4165° |
argument of perigee: | 261.2509° |
revolutions per day: | 15.29900808 |
mean anomaly at epoch: | 98.4876° |
orbit number at epoch: | 46291 |
The dashed part of the orbit path shows where the satellite is in the earth's shadow,
|
|